Time,TemperatureF,DewpointF,PressureIn,WindDirection,WindDirectionDegrees,WindSpeedMPH,WindSpeedGustMPH,Humidity,HourlyPrecipIn,Conditions,Clouds,dailyrainin,SoftwareType,DateUTC
2013-04-22 00:13:00,55.6,51.0,29.92,SSW,198,0.0,0.0,84,0.00,,,0.00,weatherlink.com 1.10,2013-04-22 07:13:00,
2013-04-22 00:28:00,55.1,51.0,29.92,SSW,198,0.0,0.0,85,0.00,,,0.00,weatherlink.com 1.10,2013-04-22 07:28:00,
2013-04-22 00:43:00,54.9,50.0,29.92,SSW,198,0.0,0.0,83,0.00,,,0.00,weatherlink.com 1.10,2013-04-22 07:43:00,
2013-04-22 00:58:00,54.5,50.0,29.92,SSW,198,0.0,0.0,84,0.00,,,0.00,weatherlink.com 1.10,2013-04-22 07:58:00,
2013-04-22 01:13:00,53.7,50.0,29.92,SSW,198,0.0,0.0,86,0.00,,,0.00,weatherlink.com 1.10,2013-04-22 08:13:00,
2013-04-22 01:28:00,53.8,49.0,29.92,SSW,198,0.0,0.0,84,0.00,,,0.00,weatherlink.com 1.10,2013-04-22 08:28:00,
2013-04-22 01:43:00,53.9,49.0,29.91,SSW,198,0.0,0.0,84,0.00,,,0.00,weatherlink.com 1.10,2013-04-22 08:43:00,
2013-04-22 01:58:00,53.3,49.0,29.91,SSW,204,0.0,0.0,85,0.00,,,0.00,weatherlink.com 1.10,2013-04-22 08:58:00,
2013-04-22 02:13:00,52.8,49.0,29.91,SSW,204,0.0,0.0,86,0.00,,,0.00,weatherlink.com 1.10,2013-04-22 09:13:00,
2013-04-22 02:28:00,53.3,48.0,29.90,NW,307,0.0,1.0,83,0.00,,,0.00,weatherlink.com 1.10,2013-04-22 09:28:00,
2013-04-22 02:43:00,53.5,49.0,29.90,NW,306,0.0,1.0,83,0.00,,,0.00,weatherlink.com 1.10,2013-04-22 09:43:00,
2013-04-22 02:59:00,52.5,48.0,29.90,NW,306,0.0,2.0,85,0.00,,,0.00,weatherlink.com 1.10,2013-04-22 09:59:00,
2013-04-22 03:14:00,52.0,48.0,29.89,NW,306,1.0,2.0,86,0.00,,,0.00,weatherlink.com 1.10,2013-04-22 10:14:00,
2013-04-22 03:29:00,51.4,48.0,29.89,NW,306,0.0,2.0,87,0.00,,,0.00,weatherlink.com 1.10,2013-04-22 10:29:00,
2013-04-22 03:44:00,50.8,47.0,29.89,NW,306,0.0,0.0,88,0.00,,,0.00,weatherlink.com 1.10,2013-04-22 10:44:00,
2013-04-22 03:59:00,52.3,48.0,29.89,North,9,0.0,2.0,84,0.00,,,0.00,weatherlink.com 1.10,2013-04-22 10:59:00,
2013-04-22 04:14:00,52.4,47.0,29.89,North,8,0.0,1.0,83,0.00,,,0.00,weatherlink.com 1.10,2013-04-22 11:14:00,
2013-04-22 04:29:00,50.4,47.0,29.89,North,5,0.0,3.0,87,0.00,,,0.00,weatherlink.com 1.10,2013-04-22 11:29:00,
2013-04-22 04:44:00,49.7,47.0,29.90,North,5,0.0,0.0,89,0.00,,,0.00,weatherlink.com 1.10,2013-04-22 11:44:00,
2013-04-22 04:59:00,49.5,47.0,29.90,North,5,0.0,0.0,90,0.00,,,0.00,weatherlink.com 1.10,2013-04-22 11:59:00,
2013-04-22 05:14:00,49.6,47.0,29.90,North,5,0.0,1.0,89,0.00,,,0.00,weatherlink.com 1.10,2013-04-22 12:14:00,
2013-04-22 05:29:00,50.0,47.0,29.89,North,5,0.0,1.0,88,0.00,,,0.00,weatherlink.com 1.10,2013-04-22 12:29:00,
2013-04-22 05:44:00,49.7,47.0,29.90,North,5,0.0,0.0,89,0.00,,,0.00,weatherlink.com 1.10,2013-04-22 12:44:00,
2013-04-22 05:59:00,49.0,46.0,29.90,North,5,0.0,0.0,89,0.00,,,0.00,weatherlink.com 1.10,2013-04-22 12:59:00,
2013-04-22 06:14:00,48.5,46.0,29.90,North,5,0.0,0.0,91,0.00,,,0.00,weatherlink.com 1.10,2013-04-22 13:14:00,
2013-04-22 06:29:00,48.3,46.0,29.90,North,5,0.0,0.0,90,0.00,,,0.00,weatherlink.com 1.10,2013-04-22 13:29:00,
2013-04-22 06:44:00,48.5,46.0,29.90,North,5,0.0,1.0,90,0.00,,,0.00,weatherlink.com 1.10,2013-04-22 13:44:00,
2013-04-22 06:59:00,48.4,46.0,29.91,North,5,0.0,1.0,91,0.00,,,0.00,weatherlink.com 1.10,2013-04-22 13:59:00,
2013-04-22 07:14:00,49.0,46.0,29.91,North,5,0.0,1.0,90,0.00,,,0.00,weatherlink.com 1.10,2013-04-22 14:14:00,
2013-04-22 07:29:00,50.5,48.0,29.91,North,7,0.0,3.0,90,0.00,,,0.00,weatherlink.com 1.10,2013-04-22 14:29:00,
2013-04-22 07:44:00,53.4,49.0,29.92,North,7,0.0,5.0,85,0.00,,,0.00,weatherlink.com 1.10,2013-04-22 14:44:00,
2013-04-22 07:59:00,56.5,50.0,29.92,ESE,119,0.0,7.0,79,0.00,,,0.00,weatherlink.com 1.10,2013-04-22 14:59:00,
2013-04-22 08:14:00,58.3,51.0,29.92,NNE,14,0.0,3.0,76,0.00,,,0.00,weatherlink.com 1.10,2013-04-22 15:14:00,
2013-04-22 08:29:00,60.0,52.0,29.92,NNE,17,0.0,6.0,74,0.00,,,0.00,weatherlink.com 1.10,2013-04-22 15:29:00,
2013-04-22 08:45:00,61.8,52.0,29.93,NNE,13,0.0,5.0,70,0.00,,,0.00,weatherlink.com 1.10,2013-04-22 15:45:00,
2013-04-22 08:59:00,63.8,52.0,29.93,NNE,22,0.0,4.0,66,0.00,,,0.00,weatherlink.com 1.10,2013-04-22 15:59:00,
2013-04-22 09:14:00,65.7,55.0,29.93,West,269,1.0,3.0,69,0.00,,,0.00,weatherlink.com 1.10,2013-04-22 16:14:00,
2013-04-22 09:29:00,67.2,55.0,29.93,West,265,0.0,1.0,65,0.00,,,0.00,weatherlink.com 1.10,2013-04-22 16:29:00,
2013-04-22 09:44:00,70.4,55.0,29.92,ESE,104,0.0,3.0,58,0.00,,,0.00,weatherlink.com 1.10,2013-04-22 16:44:00,
2013-04-22 09:59:00,72.2,55.0,29.93,NNE,13,0.0,1.0,55,0.00,,,0.00,weatherlink.com 1.10,2013-04-22 16:59:00,
2013-04-22 10:15:00,74.4,54.0,29.92,ENE,77,0.0,4.0,49,0.00,,,0.00,weatherlink.com 1.10,2013-04-22 17:15:00,
2013-04-22 10:30:00,76.0,54.0,29.92,North,360,0.0,1.0,47,0.00,,,0.00,weatherlink.com 1.10,2013-04-22 17:30:00,
2013-04-22 10:45:00,76.5,55.0,29.92,ENE,71,1.0,3.0,47,0.00,,,0.00,weatherlink.com 1.10,2013-04-22 17:45:00,
2013-04-22 11:00:00,78.3,55.0,29.92,East,86,1.0,5.0,44,0.00,,,0.00,weatherlink.com 1.10,2013-04-22 18:00:00,
2013-04-22 11:15:00,80.8,52.0,29.92,East,88,3.0,3.0,37,0.00,,,0.00,weatherlink.com 1.10,2013-04-22 18:15:00,
2013-04-22 11:30:00,81.9,52.0,29.92,ESE,115,0.0,4.0,36,0.00,,,0.00,weatherlink.com 1.10,2013-04-22 18:30:00,
2013-04-22 11:45:00,81.8,52.0,29.91,NE,39,0.0,6.0,35,0.00,,,0.00,weatherlink.com 1.10,2013-04-22 18:45:00,
2013-04-22 12:00:00,83.1,50.0,29.91,North,7,1.0,4.0,32,0.00,,,0.00,weatherlink.com 1.10,2013-04-22 19:00:00,
2013-04-22 12:15:00,84.9,45.0,29.90,SSE,155,2.0,5.0,25,0.00,,,0.00,weatherlink.com 1.10,2013-04-22 19:15:00,
2013-04-22 12:30:00,86.6,43.0,29.89,East,86,1.0,5.0,22,0.00,,,0.00,weatherlink.com 1.10,2013-04-22 19:30:00,
2013-04-22 12:45:00,87.7,44.0,29.88,ENE,58,2.0,4.0,22,0.00,,,0.00,weatherlink.com 1.10,2013-04-22 19:45:00,
2013-04-22 13:00:00,87.2,46.0,29.88,North,11,0.0,2.0,24,0.00,,,0.00,weatherlink.com 1.10,2013-04-22 20:00:00,
2013-04-22 13:15:00,88.5,43.0,29.87,North,1,0.0,4.0,20,0.00,,,0.00,weatherlink.com 1.10,2013-04-22 20:15:00,
2013-04-22 13:30:00,89.8,41.0,29.87,ENE,61,0.0,5.0,18,0.00,,,0.00,weatherlink.com 1.10,2013-04-22 20:30:00,
2013-04-22 13:45:00,90.1,40.0,29.86,NNE,15,3.0,5.0,17,0.00,,,0.00,weatherlink.com 1.10,2013-04-22 20:45:00,
2013-04-22 14:00:00,89.7,41.0,29.85,NE,40,0.0,2.0,18,0.00,,,0.00,weatherlink.com 1.10,2013-04-22 21:00:00,
2013-04-22 14:15:00,89.9,36.0,29.85,West,280,0.0,4.0,15,0.00,,,0.00,weatherlink.com 1.10,2013-04-22 21:15:00,
2013-04-22 14:30:00,87.7,55.0,29.84,SW,231,1.0,8.0,33,0.00,,,0.00,weatherlink.com 1.10,2013-04-22 21:30:00,
2013-04-22 14:46:00,87.1,55.0,29.84,West,280,4.0,7.0,33,0.00,,,0.00,weatherlink.com 1.10,2013-04-22 21:46:00,
2013-04-22 15:01:00,87.4,51.0,29.84,WSW,242,1.0,7.0,29,0.00,,,0.00,weatherlink.com 1.10,2013-04-22 22:01:00,
2013-04-22 15:16:00,87.5,50.0,29.83,SW,236,1.0,8.0,27,0.00,,,0.00,weatherlink.com 1.10,2013-04-22 22:16:00,
2013-04-22 15:31:00,87.5,52.0,29.82,WSW,245,3.0,7.0,29,0.00,,,0.00,weatherlink.com 1.10,2013-04-22 22:31:00,
2013-04-22 15:46:00,87.3,51.0,29.82,SW,235,3.0,8.0,29,0.00,,,0.00,weatherlink.com 1.10,2013-04-22 22:46:00,
2013-04-22 16:01:00,86.4,52.0,29.82,SW,234,3.0,10.0,30,0.00,,,0.00,weatherlink.com 1.10,2013-04-22 23:01:00,
2013-04-22 16:16:00,85.3,50.0,29.81,West,280,1.0,10.0,29,0.00,,,0.00,weatherlink.com 1.10,2013-04-22 23:16:00,
2013-04-22 16:46:00,84.7,49.0,29.80,WSW,248,2.0,8.0,29,0.00,,,0.00,weatherlink.com 1.10,2013-04-22 23:46:00,
2013-04-22 17:01:00,84.1,49.0,29.80,WNW,284,3.0,8.0,29,0.00,,,0.00,weatherlink.com 1.10,2013-04-23 00:01:00,
2013-04-22 17:16:00,83.8,46.0,29.80,WNW,292,2.0,8.0,27,0.00,,,0.00,weatherlink.com 1.10,2013-04-23 00:16:00,
2013-04-22 17:31:00,83.0,48.0,29.80,West,279,2.0,7.0,29,0.00,,,0.00,weatherlink.com 1.10,2013-04-23 00:31:00,
2013-04-22 17:46:00,82.6,46.0,29.80,WSW,249,1.0,5.0,28,0.00,,,0.00,weatherlink.com 1.10,2013-04-23 00:46:00,
2013-04-22 18:01:00,82.4,47.0,29.80,NNW,332,3.0,6.0,29,0.00,,,0.00,weatherlink.com 1.10,2013-04-23 01:01:00,
2013-04-22 18:16:00,81.5,45.0,29.81,WNW,289,4.0,9.0,28,0.00,,,0.00,weatherlink.com 1.10,2013-04-23 01:16:00,
2013-04-22 18:31:00,80.9,46.0,29.80,SW,236,1.0,5.0,29,0.00,,,0.00,weatherlink.com 1.10,2013-04-23 01:31:00,
2013-04-22 18:46:00,80.2,46.0,29.80,West,267,2.0,5.0,30,0.00,,,0.00,weatherlink.com 1.10,2013-04-23 01:46:00,
2013-04-22 19:01:00,79.5,46.0,29.80,WSW,256,0.0,2.0,31,0.00,,,0.00,weatherlink.com 1.10,2013-04-23 02:01:00,
2013-04-22 19:16:00,78.9,48.0,29.80,WSW,256,0.0,0.0,34,0.00,,,0.00,weatherlink.com 1.10,2013-04-23 02:16:00,
2013-04-22 19:32:00,77.0,52.0,29.80,South,182,0.0,2.0,42,0.00,,,0.00,weatherlink.com 1.10,2013-04-23 02:32:00,
2013-04-22 19:46:00,73.8,54.0,29.80,SSE,157,0.0,1.0,50,0.00,,,0.00,weatherlink.com 1.10,2013-04-23 02:46:00,
2013-04-22 20:01:00,70.6,54.0,29.81,SE,138,0.0,1.0,55,0.00,,,0.00,weatherlink.com 1.10,2013-04-23 03:01:00,
2013-04-22 20:16:00,68.3,54.0,29.81,SE,146,0.0,2.0,60,0.00,,,0.00,weatherlink.com 1.10,2013-04-23 03:16:00,
2013-04-22 20:31:00,66.5,52.0,29.82,SSE,150,0.0,3.0,61,0.00,,,0.00,weatherlink.com 1.10,2013-04-23 03:31:00,
2013-04-22 20:47:00,65.3,52.0,29.82,SSE,161,0.0,1.0,63,0.00,,,0.00,weatherlink.com 1.10,2013-04-23 03:47:00,
2013-04-22 21:02:00,63.8,52.0,29.82,SSE,161,0.0,1.0,65,0.00,,,0.00,weatherlink.com 1.10,2013-04-23 04:02:00,
2013-04-22 21:17:00,62.8,51.0,29.82,South,180,0.0,0.0,65,0.00,,,0.00,weatherlink.com 1.10,2013-04-23 04:17:00,
2013-04-22 21:32:00,62.0,51.0,29.84,South,180,0.0,1.0,68,0.00,,,0.00,weatherlink.com 1.10,2013-04-23 04:32:00,
2013-04-22 21:47:00,61.2,50.0,29.84,South,180,0.0,0.0,68,0.00,,,0.00,weatherlink.com 1.10,2013-04-23 04:47:00,
2013-04-22 22:01:00,60.7,50.0,29.84,South,180,0.0,0.0,69,0.00,,,0.00,weatherlink.com 1.10,2013-04-23 05:01:00,
2013-04-22 22:16:00,60.0,51.0,29.84,South,180,0.0,0.0,71,0.00,,,0.00,weatherlink.com 1.10,2013-04-23 05:16:00,
2013-04-22 23:01:00,58.2,50.0,29.83,West,277,0.0,2.0,75,0.00,,,0.00,weatherlink.com 1.10,2013-04-23 06:01:00,
2013-04-22 23:16:00,57.9,50.0,29.83,West,276,0.0,1.0,75,0.00,,,0.00,weatherlink.com 1.10,2013-04-23 06:16:00,
2013-04-22 23:31:00,57.2,50.0,29.83,West,276,0.0,0.0,77,0.00,,,0.00,weatherlink.com 1.10,2013-04-23 06:31:00,
2013-04-22 23:46:00,56.4,50.0,29.83,West,276,0.0,0.0,80,0.00,,,0.00,weatherlink.com 1.10,2013-04-23 06:46:00,